| time (UTC) | temp F | wind direction | speed knots | gust knots | rain 1hr in | rain 24hr in | rain mn in | humidity % | barometer mb |
| 20260504033006 | 74 | 91 | 4.3 | 10.4 | 0.00 | 0.00 | 0.00 | 71 | 1016.7 |
| 20260504031505 | 74 | 113 | 2.6 | 8.7 | 0.00 | 0.00 | 0.00 | 71 | 1016.8 |
| 20260504030004 | 74 | 126 | 3.5 | 11.3 | 0.00 | 0.00 | 0.00 | 71 | 1016.9 |
| 20260504024507 | 74 | 172 | 3.5 | 7.8 | 0.00 | 0.00 | 0.00 | 71 | 1016.7 |
| 20260504023004 | 74 | 87 | 4.3 | 7.8 | 0.00 | 0.00 | 0.00 | 71 | 1016.6 |
| 20260504021502 | 74 | 107 | 1.7 | 8.7 | 0.00 | 0.00 | 0.00 | 72 | 1016.4 |
| 20260504020002 | 74 | 108 | 2.6 | 7.8 | 0.00 | 0.00 | 0.00 | 71 | 1016.5 |
| 20260504014502 | 74 | 93 | 1.7 | 9.6 | 0.00 | 0.00 | 0.00 | 71 | 1016.4 |
| 20260504013001 | 74 | 101 | 2.6 | 9.6 | 0.00 | 0.00 | 0.00 | 71 | 1016.4 |
| 20260504011600 | 75 | 90 | 1.7 | 10.4 | 0.00 | 0.00 | 0.00 | 71 | 1016.3 |
| 20260504010100 | 75 | 86 | 7.0 | 12.2 | 0.00 | 0.00 | 0.00 | 71 | 1016.4 |
| 20260504004600 | 75 | 73 | 6.1 | 10.4 | 0.00 | 0.00 | 0.00 | 70 | 1016.2 |
| 20260504003058 | 76 | 108 | 4.3 | 11.3 | 0.00 | 0.00 | 0.00 | 68 | 1016.0 |
| 20260504001558 | 77 | 115 | 3.5 | 10.4 | 0.00 | 0.00 | 0.00 | 66 | 1016.1 |
| 20260504000135 | 77 | 80 | 3.5 | 10.4 | 0.00 | 0.00 | 0.00 | 66 | 1016.2 |
| 20260503234554 | 77 | 134 | 4.3 | 11.3 | 0.00 | 0.00 | 0.00 | 65 | 1016.2 |
| 20260503233053 | 78 | 71 | 4.3 | 9.6 | 0.00 | 0.00 | 0.00 | 64 | 1016.4 |
| 20260503231552 | 78 | 95 | 2.6 | 9.6 | 0.00 | 0.00 | 0.00 | 63 | 1016.5 |
| 20260503230054 | 78 | 77 | 7.0 | 11.3 | 0.00 | 0.00 | 0.00 | 63 | 1016.5 |
| 20260503224553 | 78 | 76 | 7.8 | 11.3 | 0.00 | 0.00 | 0.00 | 62 | 1016.7 |
| 20260503223049 | 78 | 76 | 7.0 | 11.3 | 0.00 | 0.00 | 0.00 | 62 | 1016.8 |
| 20260503221546 | 79 | 89 | 8.7 | 12.2 | 0.00 | 0.00 | 0.00 | 62 | 1017.2 |
| 20260503213037 | 78 | 82 | 7.8 | 13.0 | 0.00 | 0.00 | 0.00 | 63 | 1017.4 |
| 20260503211535 | 78 | 71 | 9.6 | 13.0 | 0.00 | 0.00 | 0.00 | 60 | 1017.6 |
| 20260503210033 | 79 | 77 | 9.6 | 12.2 | 0.00 | 0.00 | 0.00 | 60 | 1017.8 |
| 20260503204531 | 79 | 74 | 9.6 | 11.3 | 0.00 | 0.00 | 0.00 | 59 | 1018.3 |
| 20260503203033 | 79 | 75 | 8.7 | 13.0 | 0.00 | 0.00 | 0.00 | 59 | 1018.6 |
| 20260503201525 | 78 | 76 | 8.7 | 13.0 | 0.00 | 0.00 | 0.00 | 59 | 1018.8 |
| 20260503200025 | 78 | 89 | 8.7 | 13.0 | 0.00 | 0.00 | 0.00 | 62 | 1019.0 |
| 20260503194523 | 78 | 66 | 9.6 | 12.2 | 0.00 | 0.00 | 0.00 | 60 | 1019.2 |
| 20260503193023 | 78 | 79 | 10.4 | 13.0 | 0.00 | 0.00 | 0.00 | 60 | 1019.4 |
| 20260503191522 | 78 | 67 | 8.7 | 11.3 | 0.00 | 0.00 | 0.00 | 61 | 1019.6 |
| 20260503190024 | 78 | 69 | 10.4 | 13.0 | 0.00 | 0.00 | 0.00 | 60 | 1019.8 |
| 20260503184521 | 78 | 65 | 8.7 | 12.2 | 0.00 | 0.00 | 0.00 | 62 | 1019.9 |
| 20260503183024 | 78 | 74 | 10.4 | 12.2 | 0.00 | 0.00 | 0.00 | 59 | 1020.1 |
| 20260503181519 | 78 | 70 | 9.6 | 11.3 | 0.00 | 0.00 | 0.00 | 61 | 1020.3 |
| 20260503180018 | 78 | 64 | 7.8 | 9.6 | 0.00 | 0.00 | 0.00 | 62 | 1020.5 |
| 20260503174519 | 78 | 51 | 7.0 | 9.6 | 0.00 | 0.00 | 0.00 | 65 | 1020.5 |
| 20260503173014 | 77 | 38 | 7.8 | 9.6 | 0.00 | 0.00 | 0.00 | 64 | 1020.8 |
| 20260503171511 | 76 | 36 | 7.0 | 10.4 | 0.00 | 0.00 | 0.00 | 64 | 1021.1 |
| 20260503081531 | 65 | 325 | 0.0 | 3.5 | 0.00 | 0.01 | 0.00 | 77 | 1019.5 |
| 20260503071524 | 66 | 294 | 0.0 | 3.5 | 0.00 | 0.01 | 0.00 | 75 | 1019.4 |
| 20260503054521 | 69 | 277 | 1.7 | 5.2 | 0.00 | 0.01 | 0.00 | 71 | 1020.3 |
| 20260503053006 | 72 | 30 | 6.1 | 11.3 | 0.00 | 0.01 | 0.00 | 69 | 1020.1 |
| 20260503051505 | 72 | 42 | 7.8 | 12.2 | 0.00 | 0.01 | 0.00 | 68 | 1019.9 |
| 20260503050001 | 72 | 46 | 9.6 | 13.0 | 0.00 | 0.01 | 0.01 | 69 | 1019.6 |
| 20260503044503 | 72 | 52 | 9.6 | 13.0 | 0.00 | 0.01 | 0.01 | 68 | 1019.6 |
| 20260503043100 | 72 | 57 | 9.6 | 13.9 | 0.00 | 0.01 | 0.01 | 68 | 1019.6 |
| 20260503041605 | 72 | 48 | 10.4 | 13.9 | 0.00 | 0.01 | 0.01 | 66 | 1019.8 |
| 20260503040058 | 72 | 46 | 11.3 | 13.9 | 0.00 | 0.01 | 0.01 | 66 | 1019.8 |
| 20260503034556 | 72 | 49 | 10.4 | 13.9 | 0.00 | 0.01 | 0.01 | 66 | 1019.5 |